Location: *
(50.8512°N, 5.6907°E)
Time: 17:32:17
(UTC+00:00)

Cosmos 1825 - Pass Details

Date: 09 April 2020
Orbit: 502 x 509 km, 82.5° (Epoch: 03 June)

Event Time Altitude Azimuth Distance (km) Brightness Sun altitude
Rises 19:59:41 0° 0° (N) 2,632 6.3 -14.7°
Reaches altitude 10° 20:02:13 10° 17° (NNE) 1,739 5.1 -15.0°
Maximum altitude 20:05:10 21° 68° (ENE) 1,191 3.7 -15.4°
Enters shadow 20:05:39 20° 79° (E) 1,208 3.7 -15.5°
